Weather History for Fort Campbell, KY

Change the Weather History Date:

Wednesday, April 17, 2013

  Actual Average Record
Temperature  
Mean Temperature 76 °F -  
Max Temperature 87 °F 68 °F 87 °F (2013)
Min Temperature 66 °F 48 °F 33 °F (2001)
Cooling Degree Days 12    
Growing Degree Days 26 (Base 50)    
Moisture  
Dew Point 67 °F    
Average Humidity 83    
Maximum Humidity 100    
Minimum Humidity 40    
Precipitation  
Precipitation 0.00 in - - ()
Sea Level Pressure  
Sea Level Pressure 30.04 in    
Wind  
Wind Speed 5 mph (SSE)    
Max Wind Speed 16 mph    
Max Gust Speed 25 mph    
Visibility 10 miles    
Events Rain    
Averages and records for this station are not official NWS values.
T = Trace of Precipitation, MM = Missing Value Source: NWS Daily Summary

Daily Weather History Graph

Daily Weather History Graph

Search for Another Location

Airport:

Trip Planner

Search our weather history database for the weather conditions in past years. The results will help you decide how hot, cold, wet, or windy it might be!

Date:

Astronomy

Apr. 17, 2013 Rise Set
Actual Time 6:13 AM CDT 7:26 PM CDT
Civil Twilight 5:46 AM CDT 7:53 PM CDT
Nautical Twilight 5:14 AM CDT 8:25 PM CDT
Astronomical Twilight 4:41 AM CDT 8:58 PM CDT
Moon 11:29 AM CDT (4/17) 1:00 AM CDT (4/17)
Length of Visible Light 14h 06m
Length of Day
13h 13m
Waxing Crescent, 42% of the Moon is Illuminated
Apr 17
Waxing Crescent
Apr 18
First Quarter
Apr 25
Full
May 2
Last Quarter
May 9
New

Hourly Weather History & Observations

Time (CDT) Temp. Heat Index Dew Point Humidity Pressure Visibility Wind Dir Wind Speed Gust Speed Precip Events Conditions
12:02 AM 71.6 °F - 69.8 °F 94% 30.08 in 10.0 mi South 4.6 mph - N/A   Light Drizzle
12:12 AM 71.6 °F - 69.8 °F 94% 30.08 in 10.0 mi South 4.6 mph - N/A   Clear
12:13 AM 71.6 °F - 69.8 °F 94% 30.08 in 10.0 mi South 4.6 mph - N/A   Light Drizzle
12:14 AM 71.6 °F - 69.8 °F 94% 30.08 in 10.0 mi South 4.6 mph - N/A   Clear
12:39 AM 71.6 °F - 69.8 °F 94% 30.08 in 10.0 mi South 3.5 mph - N/A Rain Light Rain
12:47 AM 71.6 °F - 69.8 °F 94% 30.08 in 10.0 mi Calm Calm - N/A   Clear
12:55 AM 70.5 °F - 70.5 °F 100% 30.09 in 10.0 mi Calm Calm - 0.00 in   Clear
12:59 AM 69.8 °F - 69.8 °F 100% 30.09 in 10.0 mi Calm Calm - N/A   Light Drizzle
1:33 AM 69.8 °F - 69.8 °F 100% 30.09 in 10.0 mi SSE 3.5 mph - N/A   Partly Cloudy
1:55 AM 68.5 °F - 68.4 °F 99% 30.08 in 10.0 mi SE 3.5 mph - 0.00 in   Clear
2:03 AM 68.0 °F - 68.0 °F 100% 30.07 in 10.0 mi ESE 3.5 mph - N/A Rain Light Rain
2:12 AM 68.0 °F - 68.0 °F 100% 30.08 in 10.0 mi SSE 3.5 mph - N/A   Clear
2:25 AM 68.0 °F - 68.0 °F 100% 30.07 in 10.0 mi SSE 3.5 mph - N/A   Light Drizzle
2:41 AM 68.0 °F - 68.0 °F 100% 30.06 in 10.0 mi South 4.6 mph - N/A   Clear
2:53 AM 68.0 °F - 68.0 °F 100% 30.06 in 10.0 mi SSE 3.5 mph - N/A   Light Drizzle
2:55 AM 68.5 °F - 68.5 °F 100% 30.06 in 10.0 mi SSE 3.5 mph - 0.00 in   Clear
2:58 AM 68.0 °F - 68.0 °F 100% 30.06 in 10.0 mi SSE 3.5 mph - N/A   Light Drizzle
3:09 AM 68.0 °F - 68.0 °F 100% 30.06 in 10.0 mi SE 3.5 mph - N/A   Scattered Clouds
3:20 AM 68.0 °F - 68.0 °F 100% 30.06 in 10.0 mi Calm Calm - N/A   Light Drizzle
3:25 AM 68.0 °F - 68.0 °F 100% 30.06 in 10.0 mi SSE 3.5 mph - N/A   Partly Cloudy
3:26 AM 68.0 °F - 68.0 °F 100% 30.06 in 10.0 mi SSE 3.5 mph - N/A Rain Light Rain
3:37 AM 68.0 °F - 68.0 °F 100% 30.07 in 10.0 mi SSE 4.6 mph - N/A   Partly Cloudy
3:39 AM 68.0 °F - 68.0 °F 100% 30.07 in 10.0 mi SSE 4.6 mph - N/A   Light Drizzle
3:43 AM 68.0 °F - 68.0 °F 100% 30.07 in 10.0 mi SSE 4.6 mph - N/A   Clear
3:54 AM 68.0 °F - 68.0 °F 100% 30.06 in 10.0 mi South 4.6 mph - N/A   Light Drizzle
3:55 AM 68.2 °F - 68.2 °F 100% 30.06 in 10.0 mi South 3.5 mph - 0.00 in   Light Drizzle
4:08 AM 68.0 °F - 68.0 °F 100% 30.06 in 10.0 mi South 4.6 mph - N/A   Clear
4:55 AM 66.9 °F - 66.9 °F 100% 30.08 in 10.0 mi Calm Calm - 0.00 in   Partly Cloudy
5:34 AM 66.2 °F - 66.2 °F 100% 30.09 in 10.0 mi SE 3.5 mph - N/A Rain Light Rain
5:39 AM 66.2 °F - 66.2 °F 100% 30.09 in 10.0 mi SE 3.5 mph - N/A   Scattered Clouds
5:55 AM 66.6 °F - 66.6 °F 100% 30.10 in 10.0 mi SE 3.5 mph - 0.00 in   Scattered Clouds
6:55 AM 66.4 °F - 66.4 °F 100% 30.12 in 10.0 mi SE 4.6 mph - N/A   Scattered Clouds
7:55 AM 71.2 °F - 71.2 °F 100% 30.11 in 10.0 mi SSE 4.6 mph - N/A   Scattered Clouds
8:55 AM 76.8 °F - 70.0 °F 79% 30.09 in 10.0 mi South 8.1 mph - N/A   Partly Cloudy
9:55 AM 80.8 °F 84.2 °F 70.2 °F 70% 30.09 in 10.0 mi SW 11.5 mph - N/A   Clear
10:55 AM 84.0 °F 87.0 °F 68.0 °F 58% 30.08 in 10.0 mi SSW 11.5 mph - N/A   Scattered Clouds
11:55 AM 84.0 °F 86.5 °F 66.9 °F 56% 30.07 in 10.0 mi South 10.4 mph - N/A   Partly Cloudy
12:55 PM 85.6 °F 87.4 °F 65.1 °F 50% 30.04 in 10.0 mi South 16.1 mph - N/A   Scattered Clouds
1:55 PM 86.9 °F 87.8 °F 63.1 °F 45% 30.02 in 10.0 mi SSW 13.8 mph 23.0 mph N/A   Partly Cloudy
2:55 PM 87.3 °F 87.5 °F 61.3 °F 42% 30.00 in 10.0 mi South 15.0 mph 25.3 mph N/A   Partly Cloudy
3:55 PM 87.6 °F 87.4 °F 60.4 °F 40% 29.98 in 10.0 mi South 9.2 mph - N/A   Partly Cloudy
4:55 PM 85.5 °F 85.2 °F 60.1 °F 42% 29.95 in 10.0 mi South 11.5 mph - N/A   Clear
5:55 PM 83.5 °F 83.9 °F 61.2 °F 47% 29.94 in 10.0 mi South 8.1 mph - N/A   Clear
6:55 PM 82.4 °F 83.4 °F 62.6 °F 51% 29.91 in 10.0 mi SE 8.1 mph - N/A   Clear
7:55 PM 81.1 °F 82.7 °F 63.9 °F 56% 29.92 in 10.0 mi SSE 10.4 mph - N/A   Scattered Clouds
8:07 PM 80.6 °F 82.3 °F 64.4 °F 58% 29.92 in 10.0 mi SSE 10.4 mph - N/A   Light Drizzle
8:29 PM 80.6 °F 82.3 °F 64.4 °F 58% 29.93 in 10.0 mi SSE 8.1 mph - N/A   Partly Cloudy
8:31 PM 80.6 °F 82.3 °F 64.4 °F 58% 29.93 in 10.0 mi SSE 8.1 mph - N/A   Light Drizzle
8:34 PM 80.6 °F 82.3 °F 64.4 °F 58% 29.93 in 10.0 mi ESE 6.9 mph - N/A   Clear
8:55 PM 76.1 °F - 63.3 °F 64% 29.94 in 10.0 mi ESE 6.9 mph - 0.00 in   Partly Cloudy
9:55 PM 74.8 °F - 63.3 °F 67% 29.94 in 10.0 mi SE 8.1 mph - N/A   Clear
10:55 PM 74.3 °F - 63.5 °F 69% 29.91 in 10.0 mi SSE 9.2 mph - N/A   Clear
11:55 PM 73.2 °F - 64.2 °F 73% 29.89 in 10.0 mi SSE 8.1 mph - N/A   Clear